User: anonymous   Login
Location: Oshawa
(43.9000°N, 78.8670°W)
Time: 21:18:59
(UTC-05:00)
Language:

ITAMSAT 1 - Orbit

View from above orbital plane
View from above orbital plane
View from above satellite
View from above satellite

Ground track
Ground track

The orbit data is extracted from the following two-line orbital elements,

1 22826U 93061D   17343.87651339  .00000014  00000-0  23220-4 0  9997
2 22826  98.8316 311.8932 0009146 162.4112 197.7389 14.30346240262697
Epoch (UTC): 09 December 2017 21:02:10
Eccentricity: 0.0009146
inclination: 98.8316°
perigee height: 784 km
apogee height: 797 km
right ascension of ascending node: 311.8932°
argument of perigee: 162.4112°
revolutions per day: 14.30346240
mean anomaly at epoch: 197.7389°
orbit number at epoch: 26269

The dashed part of the orbit path shows where the satellite is in the earth's shadow,  

DLR